Voltar ao catálogo

STARLINK-30198

AtivoComunicaçõesVLEO
NORAD 57290·PAYLOAD·🇺🇸 United States

Lançado Jul 10, 2023 de Cape Canaveral Space Force Station

Loading…

Próximas Passagens (próximas 24 horas)

TLE

AtualizadoSource: CelesTrak SupGP

Época: Sep 15, 2026, 02:26 UTC

1 57290C 23096A   26258.10187500  .00019205  00000+0  60673-3 0  2587
2 57290  42.9821 236.6920 0012614 115.0308 310.7928 15.31907078    13

Acompanhe STARLINK-30198 em tempo real com AllMySat

Download on the App Store